{"data":{"norad_id":63748,"epoch":"2026-05-25T02:51:29.117664Z","epoch_age_seconds":60899,"freshness":"FRESH","line1":"1 63748U 25088AA  26145.11908701  .00000694  00000+0  11998-3 0  9995","line2":"2 63748  51.8992 135.1184 0000732  27.3870 332.7130 14.79931659 58844","mean_motion":14.79931659,"eccentricity":7.32e-5,"inclination_deg":51.8992,"raan_deg":135.1184,"arg_perigee_deg":27.387,"mean_anomaly_deg":332.713,"bstar":0.00011998,"rev_number":5884,"period_min":97.301790338955,"perigee_km":629.02690043656,"apogee_km":630.05282432922,"semimajor_km":7007.6768623829,"source":"CELESTRAK","updated_at":"2026-05-25T13:38:03.931330Z"}}